Date String (YYYY-MM-DD hh:mm:ss) UTC,Instrument flags,absolute air pressure of the measurement (hPa),sample flow rate (lpm),inlet stack bypass flow (lpm),air temperature of the measurement (°C),ambient temperature measured by the external sensor (°C),aerosol sample conditioner tube jacket temperature (°C),OPC LED temperature (°C),internal box temperature (°C),relative humidity of the measurement (%),span deviation,mass concentration of particles derived from Lorenz-Mie calculation of OPC scattering (μg/m³),mass concentration of particles derived from Lorenz-Mie calculation of OPC scattering (μg/m³),mass concentration of particles derived from Lorenz-Mie calculation of OPC scattering (μg/m³)
DateTimeUTC,F1_M11,P_M11,Q1_M11,Q2_M11,T1_M11,T2_M11,T3_M11,T4_M11,T5_M11,U1_M11,ZSPAN_M11,X0_M11,X2_M11,X1_M11
2023-06-28 13:00:00,SystemResetWarning,0830.2,5.00,000.00,030.0,028.5,000.0,038.5,031.5,28.2,0002.2,0018.03,0008.26,0006.89
2023-06-28 13:01:00,SystemResetWarning,0830.2,5.00,000.00,030.0,028.5,000.0,038.5,031.5,28.1,0001.8,0018.22,0008.22,0006.88
2023-06-28 13:02:00,SystemResetWarning,0830.3,5.00,000.00,030.0,028.6,000.0,038.5,031.6,28.2,0001.7,0018.00,0008.23,0006.89
2023-06-28 13:03:00,SystemResetWarning,0830.3,5.00,000.00,030.1,028.6,000.0,038.6,031.6,28.3,0001.7,0017.40,0008.31,0006.92
2023-06-28 13:04:00,SystemResetWarning,0830.3,5.00,000.00,030.1,028.6,000.0,038.6,031.6,28.3,0001.0,0017.79,0008.39,0006.94
2023-06-28 13:05:00,SystemResetWarning,0830.3,5.00,000.00,030.1,028.6,000.0,038.6,031.7,28.3,0000.4,0018.55,0008.42,0006.96
2023-06-28 13:06:00,SystemResetWarning,0830.3,5.00,000.00,030.1,028.7,000.0,038.6,031.6,28.4,0000.8,0018.72,0008.42,0006.97
2023-06-28 13:07:00,SystemResetWarning,0830.3,5.00,000.00,030.2,028.7,000.0,038.6,031.7,28.1,0000.8,0019.23,0008.41,0006.97
2023-06-28 13:08:00,SystemResetWarning,0830.3,5.00,000.00,030.2,028.7,000.0,038.6,031.7,28.0,0001.0,0019.14,0008.49,0006.98
2023-06-28 13:09:00,SystemResetWarning,0830.3,5.00,000.00,030.2,028.7,000.0,038.7,031.7,28.0,0001.4,0019.10,0008.53,0006.99
2023-06-28 13:10:00,SystemResetWarning,0830.3,4.99,000.00,030.2,026.9,000.0,038.6,031.8,28.0,0001.3,0019.12,0008.52,0007.00
2023-06-28 13:11:00,SystemResetWarning,0830.3,5.00,000.00,030.2,025.3,000.0,038.5,031.7,28.1,0000.8,0019.38,0008.52,0007.02
2023-06-28 13:12:00,SystemResetWarning,0830.3,5.01,000.00,030.1,025.2,000.0,038.5,031.4,28.5,0001.0,0018.72,0008.54,0007.07
2023-06-28 13:13:00,SystemResetWarning,0830.3,5.01,000.00,030.0,025.5,000.0,038.5,031.1,29.0,0001.7,0018.60,0008.54,0007.09
2023-06-28 13:14:00,SystemResetWarning,0830.3,4.99,000.00,029.9,025.9,000.0,038.5,031.1,29.2,0002.1,0018.41,0008.46,0007.10
2023-06-28 13:15:00,SystemResetWarning,0830.4,5.01,000.00,029.9,026.4,000.0,038.5,031.2,29.2,0002.5,0018.31,0008.42,0007.11
2023-06-28 13:16:00,SystemResetWarning,0830.4,5.00,000.00,029.9,026.7,000.0,038.5,031.2,29.4,0002.9,0016.94,0008.43,0007.13
2023-06-28 13:17:00,SystemResetWarning,0830.4,5.00,000.00,029.9,027.1,000.0,038.5,031.2,29.7,0002.7,0016.64,0008.42,0007.15
2023-06-28 13:18:00,SystemResetWarning,0830.4,5.00,000.00,029.9,027.3,000.0,038.5,031.2,29.6,0002.5,0016.48,0008.48,0007.19
2023-06-28 13:19:00,SystemResetWarning,0830.4,5.00,000.00,029.9,027.6,000.0,038.5,031.3,29.8,0002.7,0016.53,0008.54,0007.24
2023-06-28 13:20:00,SystemResetWarning,0830.5,5.00,000.00,029.9,027.8,000.0,038.5,031.3,29.9,0002.3,0015.90,0008.53,0007.26
2023-06-28 13:21:00,SystemResetWarning,0830.4,5.01,000.00,029.9,027.9,000.0,038.5,031.3,30.1,0002.2,0015.30,0008.54,0007.29
2023-06-28 13:22:00,SystemResetWarning,0830.4,5.01,000.00,029.9,028.0,000.0,038.5,031.3,29.9,0002.3,0014.77,0008.58,0007.31
2023-06-28 13:23:00,SystemResetWarning,0830.5,5.00,000.00,029.9,028.2,000.0,038.5,031.4,29.8,0002.3,0015.19,0008.60,0007.31
2023-06-28 13:24:00,SystemResetWarning,0830.4,5.00,000.00,029.9,028.2,000.0,038.5,031.4,30.1,0002.0,0015.07,0008.61,0007.32
2023-06-28 13:25:00,SystemResetWarning,0830.4,5.00,000.00,029.9,028.3,000.0,038.5,031.4,30.1,0002.1,0015.09,0008.68,0007.34
2023-06-28 13:26:00,SystemResetWarning,0830.4,5.00,000.00,030.0,028.4,000.0,038.5,031.5,30.0,0001.9,0014.95,0008.70,0007.35
2023-06-28 13:27:00,SystemResetWarning,0830.4,5.00,000.00,030.0,028.5,000.0,038.5,031.5,30.0,0001.8,0015.72,0008.74,0007.36
2023-06-28 13:28:00,SystemResetWarning,0830.4,5.00,000.00,030.0,028.5,000.0,038.5,031.5,30.2,0002.2,0015.82,0008.79,0007.37
2023-06-28 13:29:00,SystemResetWarning,0830.4,5.00,000.00,030.0,028.5,000.0,038.5,031.6,30.3,0001.7,0015.04,0008.74,0007.35
2023-06-28 13:30:00,SystemResetWarning,0830.4,5.00,000.00,030.1,028.6,000.0,038.6,031.6,30.9,0001.3,0015.27,0008.69,0007.34
2023-06-28 13:31:00,SystemResetWarning,0830.4,5.00,000.00,030.1,028.6,000.0,038.6,031.6,30.9,0001.4,0016.26,0008.70,0007.35
2023-06-28 13:32:00,SystemResetWarning,0830.6,5.00,000.00,030.1,028.7,000.0,038.6,031.6,30.7,0001.1,0016.66,0008.69,0007.36
2023-06-28 13:33:00,SystemResetWarning,0830.6,5.00,000.00,030.1,028.7,000.0,038.6,031.7,30.5,0000.7,0016.49,0008.70,0007.36
2023-06-28 13:34:00,SystemResetWarning,0830.4,5.00,000.00,030.2,028.7,000.0,038.6,031.7,30.4,0001.0,0016.23,0008.72,0007.37
2023-06-28 13:35:00,SystemResetWarning,0830.7,5.00,000.00,030.2,028.8,000.0,038.6,031.7,30.8,0001.0,0016.98,0008.78,0007.38
2023-06-28 13:36:00,SystemResetWarning,0830.7,5.00,000.00,030.2,028.8,000.0,038.7,031.7,31.1,0000.6,0017.68,0008.76,0007.37
2023-06-28 13:37:00,SystemResetWarning,0830.6,5.00,000.00,030.2,028.8,000.0,038.7,031.7,31.1,0000.4,0017.77,0008.72,0007.37
2023-06-28 13:38:00,SystemResetWarning,0830.6,4.98,000.00,030.2,027.8,000.0,038.6,031.8,31.3,0000.4,0017.00,0008.71,0007.38
2023-06-28 13:39:00,SystemResetWarning,0830.7,5.00,000.00,030.2,025.6,000.0,038.6,031.6,31.0,0000.3,0016.92,0008.71,0007.40
2023-06-28 13:40:00,SystemResetWarning,0830.5,5.01,000.00,030.1,024.6,000.0,038.5,031.5,31.1,0000.5,0017.43,0008.78,0007.42
2023-06-28 13:41:00,SystemResetWarning,0830.5,5.01,000.00,030.0,024.8,000.0,038.5,031.2,31.4,0000.5,0017.47,0008.84,0007.43
2023-06-28 13:42:00,SystemResetWarning,0830.4,5.00,000.00,029.9,025.2,000.0,038.5,031.0,31.5,0000.5,0016.62,0008.85,0007.43
2023-06-28 13:43:00,SystemResetWarning,0830.4,5.00,000.00,029.9,025.7,000.0,038.5,031.0,31.6,0001.1,0017.14,0008.93,0007.42
2023-06-28 13:44:00,SystemResetWarning,0830.6,5.00,000.00,029.8,026.2,000.0,038.5,031.1,32.1,0001.6,0018.15,0008.97,0007.42
2023-06-28 13:45:00,SystemResetWarning,0830.4,5.00,000.00,029.8,026.6,000.0,038.5,031.1,31.9,0001.4,0018.30,0009.02,0007.44
2023-06-28 13:46:00,SystemResetWarning,0830.4,5.00,000.00,029.8,027.0,000.0,038.4,031.1,31.7,0001.6,0018.15,0009.01,0007.44
2023-06-28 13:47:00,SystemResetWarning,0830.4,5.00,000.00,029.8,027.3,000.0,038.4,031.2,31.9,0002.0,0017.64,0009.05,0007.45
2023-06-28 13:48:00,SystemResetWarning,0830.5,4.99,000.00,029.8,027.5,000.0,038.4,031.2,32.9,0002.1,0017.85,0009.17,0007.46
2023-06-28 13:49:00,SystemResetWarning,0830.5,5.00,000.00,029.8,027.7,000.0,038.4,031.3,32.1,0002.3,0018.16,0009.24,0007.47
2023-06-28 13:50:00,SystemResetWarning,0830.6,5.00,000.00,029.8,027.9,000.0,038.4,031.3,32.5,0002.0,0018.56,0009.30,0007.49
2023-06-28 13:51:00,SystemResetWarning,0830.4,5.02,000.00,029.8,028.0,000.0,038.4,031.3,32.4,0002.0,0018.36,0009.31,0007.50
2023-06-28 13:52:00,SystemResetWarning,0830.4,5.00,000.00,029.9,028.1,000.0,038.4,031.3,32.7,0002.0,0018.57,0009.26,0007.51
2023-06-28 13:53:00,SystemResetWarning,0830.4,5.00,000.00,029.9,028.2,000.0,038.4,031.4,32.4,0001.8,0019.72,0009.30,0007.53
2023-06-28 13:54:00,SystemResetWarning,0830.6,4.99,000.00,029.9,028.3,000.0,038.4,031.4,31.8,0001.6,0019.05,0009.22,0007.54
2023-06-28 13:55:00,SystemResetWarning,0830.6,4.99,000.00,029.9,028.4,000.0,038.5,031.5,31.8,0001.6,0018.60,0009.19,0007.54
2023-06-28 13:56:00,SystemResetWarning,0830.7,5.01,000.00,029.9,028.5,000.0,038.5,031.5,31.9,0002.0,0018.57,0009.16,0007.55
2023-06-28 13:57:00,SystemResetWarning,0830.4,5.01,000.00,030.0,028.5,000.0,038.5,031.5,32.1,0002.1,0018.82,0009.14,0007.54
2023-06-28 13:58:00,SystemResetWarning,0830.6,5.00,000.00,030.0,028.6,000.0,038.5,031.5,31.5,0001.6,0018.91,0009.15,0007.56
2023-06-28 13:59:00,SystemResetWarning,0830.6,5.00,000.00,030.0,028.6,000.0,038.5,031.6,31.7,0001.5,0018.64,0009.08,0007.55
